Year,Month,Day,Hour,Minute,Value (Times are PST for temperature in C)
2016,04,30,00,00,7.30
2016,04,30,00,01,7.20
2016,04,30,00,02,7.20
2016,04,30,00,03,7.20
2016,04,30,00,04,7.20
2016,04,30,00,05,7.20
2016,04,30,00,06,7.20
2016,04,30,00,07,7.10
2016,04,30,00,08,7.10
2016,04,30,00,09,7.10
2016,04,30,00,10,7.10
2016,04,30,00,11,7.10
2016,04,30,00,12,7.00
2016,04,30,00,13,7.00
2016,04,30,00,14,7.00
2016,04,30,00,15,6.90
2016,04,30,00,16,6.90
2016,04,30,00,17,6.90
2016,04,30,00,18,6.90
2016,04,30,00,19,6.90
2016,04,30,00,20,6.80
2016,04,30,00,21,6.80
2016,04,30,00,22,6.80
2016,04,30,00,23,6.80
2016,04,30,00,24,6.80
2016,04,30,00,25,6.70
2016,04,30,00,26,6.70
2016,04,30,00,27,6.70
2016,04,30,00,28,6.70
2016,04,30,00,29,6.70
2016,04,30,00,30,6.70
2016,04,30,00,31,6.60
2016,04,30,00,32,6.60
2016,04,30,00,33,6.60
2016,04,30,00,34,6.50
2016,04,30,00,35,6.50
2016,04,30,00,36,6.50
2016,04,30,00,37,6.40
2016,04,30,00,38,6.40
2016,04,30,00,39,6.40
2016,04,30,00,40,6.40
2016,04,30,00,41,6.40
2016,04,30,00,42,6.40
2016,04,30,00,43,6.40
2016,04,30,00,44,6.40
2016,04,30,00,45,6.50
2016,04,30,00,46,6.50
2016,04,30,00,47,6.50
2016,04,30,00,48,6.50
2016,04,30,00,49,6.50
2016,04,30,00,50,6.40
2016,04,30,00,51,6.40
2016,04,30,00,52,6.40
2016,04,30,00,53,6.40
2016,04,30,00,54,6.40
2016,04,30,00,55,6.40
2016,04,30,00,56,6.40
2016,04,30,00,57,6.40
2016,04,30,00,58,6.30
2016,04,30,00,59,6.30
2016,04,30,01,00,6.30
2016,04,30,01,01,6.20
2016,04,30,01,02,6.20
2016,04,30,01,03,6.20
2016,04,30,01,04,6.20
2016,04,30,01,05,6.20
2016,04,30,01,06,6.20
2016,04,30,01,07,6.20
2016,04,30,01,08,6.30
2016,04,30,01,09,6.30
2016,04,30,01,10,6.30
2016,04,30,01,11,6.30
2016,04,30,01,12,6.30
2016,04,30,01,13,6.30
2016,04,30,01,14,6.30
2016,04,30,01,15,6.30
2016,04,30,01,16,6.30
2016,04,30,01,17,6.30
2016,04,30,01,18,6.30
2016,04,30,01,19,6.30
2016,04,30,01,20,6.30
2016,04,30,01,21,6.30
2016,04,30,01,22,6.30
2016,04,30,01,23,6.30
2016,04,30,01,24,6.30
2016,04,30,01,25,6.20
2016,04,30,01,26,6.20
2016,04,30,01,27,6.20
2016,04,30,01,28,6.20
2016,04,30,01,29,6.20
2016,04,30,01,30,6.20
2016,04,30,01,31,6.10
2016,04,30,01,32,6.10
2016,04,30,01,33,6.10
2016,04,30,01,34,6.10
2016,04,30,01,35,6.00
2016,04,30,01,36,6.00
2016,04,30,01,37,6.00
2016,04,30,01,38,6.00
2016,04,30,01,39,5.90
2016,04,30,01,40,5.90
2016,04,30,01,41,5.90
2016,04,30,01,42,5.90
2016,04,30,01,43,5.80
2016,04,30,01,44,5.80
2016,04,30,01,45,5.80
2016,04,30,01,46,5.80
2016,04,30,01,47,5.80
2016,04,30,01,48,5.80
2016,04,30,01,49,5.80
2016,04,30,01,50,5.80
2016,04,30,01,51,5.80
2016,04,30,01,52,5.80
2016,04,30,01,53,5.90
2016,04,30,01,54,5.90
2016,04,30,01,55,5.90
2016,04,30,01,56,5.90
2016,04,30,01,57,5.90
2016,04,30,01,58,5.90
2016,04,30,01,59,5.90
2016,04,30,02,00,5.90
2016,04,30,02,01,5.90
2016,04,30,02,02,5.90
2016,04,30,02,03,5.80
2016,04,30,02,04,5.80
2016,04,30,02,05,5.80
2016,04,30,02,06,5.80
2016,04,30,02,07,5.80
2016,04,30,02,08,5.80
2016,04,30,02,09,5.80
2016,04,30,02,10,5.80
2016,04,30,02,11,5.70
2016,04,30,02,12,5.70
2016,04,30,02,13,5.70
2016,04,30,02,14,5.70
2016,04,30,02,15,5.70
2016,04,30,02,16,5.70
2016,04,30,02,17,5.70
2016,04,30,02,18,5.70
2016,04,30,02,19,5.70
2016,04,30,02,20,5.70
2016,04,30,02,21,5.70
2016,04,30,02,22,5.70
2016,04,30,02,23,5.70
2016,04,30,02,24,5.70
2016,04,30,02,25,5.70
2016,04,30,02,26,5.70
2016,04,30,02,27,5.70
2016,04,30,02,28,5.70
2016,04,30,02,29,5.70
2016,04,30,02,30,5.70
2016,04,30,02,31,5.70
2016,04,30,02,32,5.70
2016,04,30,02,33,5.70
2016,04,30,02,34,5.60
2016,04,30,02,35,5.60
2016,04,30,02,36,5.60
2016,04,30,02,37,5.60
2016,04,30,02,38,5.60
2016,04,30,02,39,5.50
2016,04,30,02,40,5.50
2016,04,30,02,41,5.50
2016,04,30,02,42,5.50
2016,04,30,02,43,5.40
2016,04,30,02,44,5.40
2016,04,30,02,45,5.40
2016,04,30,02,46,5.40
2016,04,30,02,47,5.40
2016,04,30,02,48,5.30
2016,04,30,02,49,5.30
2016,04,30,02,50,5.30
2016,04,30,02,51,5.30
2016,04,30,02,52,5.40
2016,04,30,02,53,5.40
2016,04,30,02,54,5.40
2016,04,30,02,55,5.40
2016,04,30,02,56,5.40
2016,04,30,02,57,5.40
2016,04,30,02,58,5.40
2016,04,30,02,59,5.40
2016,04,30,03,00,5.40
2016,04,30,03,01,5.30
2016,04,30,03,02,5.30
2016,04,30,03,03,5.30
2016,04,30,03,04,5.30
2016,04,30,03,05,5.30
2016,04,30,03,06,5.30
2016,04,30,03,07,5.30
2016,04,30,03,08,5.30
2016,04,30,03,09,5.30
2016,04,30,03,10,5.30
2016,04,30,03,11,5.30
2016,04,30,03,12,5.30
2016,04,30,03,13,5.30
2016,04,30,03,14,5.30
2016,04,30,03,15,5.30
2016,04,30,03,16,5.30
2016,04,30,03,17,5.30
2016,04,30,03,18,5.30
2016,04,30,03,19,5.30
2016,04,30,03,20,5.30
2016,04,30,03,21,5.30
2016,04,30,03,22,5.30
2016,04,30,03,23,5.30
2016,04,30,03,24,5.30
2016,04,30,03,25,5.20
2016,04,30,03,26,5.20
2016,04,30,03,27,5.20
2016,04,30,03,28,5.20
2016,04,30,03,29,5.20
2016,04,30,03,30,5.20
2016,04,30,03,31,5.20
2016,04,30,03,32,5.20
2016,04,30,03,33,5.20
2016,04,30,03,34,5.20
2016,04,30,03,35,5.20
2016,04,30,03,36,5.20
2016,04,30,03,37,5.20
2016,04,30,03,38,5.20
2016,04,30,03,39,5.20
2016,04,30,03,40,5.20
2016,04,30,03,41,5.20
2016,04,30,03,42,5.20
2016,04,30,03,43,5.20
2016,04,30,03,44,5.20
2016,04,30,03,45,5.20
2016,04,30,03,46,5.20
2016,04,30,03,47,5.20
2016,04,30,03,48,5.20
2016,04,30,03,49,5.20
2016,04,30,03,50,5.10
2016,04,30,03,51,5.10
2016,04,30,03,52,5.00
2016,04,30,03,53,5.00
2016,04,30,03,54,5.00
2016,04,30,03,55,5.00
2016,04,30,03,56,4.90
2016,04,30,03,57,4.90
2016,04,30,03,58,4.90
2016,04,30,03,59,4.90
2016,04,30,04,00,4.90
2016,04,30,04,01,4.90
2016,04,30,04,02,4.90
2016,04,30,04,03,4.90
2016,04,30,04,04,4.90
2016,04,30,04,05,4.90
2016,04,30,04,06,4.90
2016,04,30,04,07,4.90
2016,04,30,04,08,4.90
2016,04,30,04,09,4.90
2016,04,30,04,10,4.90
2016,04,30,04,11,4.90
2016,04,30,04,12,4.90
2016,04,30,04,13,4.90
2016,04,30,04,14,4.90
2016,04,30,04,15,4.90
2016,04,30,04,16,4.90
2016,04,30,04,17,4.90
2016,04,30,04,18,4.90
2016,04,30,04,19,4.90
2016,04,30,04,20,4.90
2016,04,30,04,21,4.90
2016,04,30,04,22,4.80
2016,04,30,04,23,4.80
2016,04,30,04,24,4.80
2016,04,30,04,25,4.80
2016,04,30,04,26,4.80
2016,04,30,04,27,4.80
2016,04,30,04,28,4.70
2016,04,30,04,29,4.70
2016,04,30,04,30,4.70
2016,04,30,04,31,4.70
2016,04,30,04,32,4.70
2016,04,30,04,33,4.70
2016,04,30,04,34,4.70
2016,04,30,04,35,4.70
2016,04,30,04,36,4.70
2016,04,30,04,37,4.80
2016,04,30,04,38,4.80
2016,04,30,04,39,4.80
2016,04,30,04,40,4.80
2016,04,30,04,41,4.80
2016,04,30,04,42,4.80
2016,04,30,04,43,4.80
2016,04,30,04,44,4.80
2016,04,30,04,45,4.80
2016,04,30,04,46,4.70
2016,04,30,04,47,4.70
2016,04,30,04,48,4.70
2016,04,30,04,49,4.70
2016,04,30,04,50,4.70
2016,04,30,04,51,4.70
2016,04,30,04,52,4.60
2016,04,30,04,53,4.60
2016,04,30,04,54,4.60
2016,04,30,04,55,4.60
2016,04,30,04,56,4.50
2016,04,30,04,57,4.50
2016,04,30,04,58,4.50
2016,04,30,04,59,4.50
2016,04,30,05,00,4.40
2016,04,30,05,01,4.40
2016,04,30,05,02,4.40
2016,04,30,05,03,4.40
2016,04,30,05,04,4.40
2016,04,30,05,05,4.40
2016,04,30,05,06,4.40
2016,04,30,05,07,4.40
2016,04,30,05,08,4.40
2016,04,30,05,09,4.40
2016,04,30,05,10,4.40
2016,04,30,05,11,4.40
2016,04,30,05,12,4.40
2016,04,30,05,13,4.40
2016,04,30,05,14,4.40
2016,04,30,05,15,4.40
2016,04,30,05,16,4.40
2016,04,30,05,17,4.40
2016,04,30,05,18,4.40
2016,04,30,05,19,4.40
2016,04,30,05,20,4.40
2016,04,30,05,21,4.40
2016,04,30,05,22,4.40
2016,04,30,05,23,4.40
2016,04,30,05,24,4.40
2016,04,30,05,25,4.40
2016,04,30,05,26,4.40
2016,04,30,05,27,4.40
2016,04,30,05,28,4.40
2016,04,30,05,29,4.40
2016,04,30,05,30,4.50
2016,04,30,05,31,4.50
2016,04,30,05,32,4.50
2016,04,30,05,33,4.50
2016,04,30,05,34,4.50
2016,04,30,05,35,4.60
2016,04,30,05,36,4.60
2016,04,30,05,37,4.60
2016,04,30,05,38,4.60
2016,04,30,05,39,4.60
2016,04,30,05,40,4.60
2016,04,30,05,41,4.60
2016,04,30,05,42,4.60
2016,04,30,05,43,4.60
2016,04,30,05,44,4.60
2016,04,30,05,45,4.50
2016,04,30,05,46,4.50
2016,04,30,05,47,4.50
2016,04,30,05,48,4.50
2016,04,30,05,49,4.50
2016,04,30,05,50,4.40
2016,04,30,05,51,4.40
2016,04,30,05,52,4.40
2016,04,30,05,53,4.40
2016,04,30,05,54,4.40
2016,04,30,05,55,4.40
2016,04,30,05,56,4.40
2016,04,30,05,57,4.40
2016,04,30,05,58,4.40
2016,04,30,05,59,4.30
2016,04,30,06,00,4.30
2016,04,30,06,01,4.30
2016,04,30,06,02,4.30
2016,04,30,06,03,4.30
2016,04,30,06,04,4.30
2016,04,30,06,05,4.30
2016,04,30,06,06,4.30
2016,04,30,06,07,4.30
2016,04,30,06,08,4.30
2016,04,30,06,09,4.30
2016,04,30,06,10,4.30
2016,04,30,06,11,4.30
2016,04,30,06,12,4.30
2016,04,30,06,13,4.30
2016,04,30,06,14,4.30
2016,04,30,06,15,4.30
2016,04,30,06,16,4.30
2016,04,30,06,17,4.30
2016,04,30,06,18,4.20
2016,04,30,06,19,4.20
2016,04,30,06,20,4.20
2016,04,30,06,21,4.20
2016,04,30,06,22,4.10
2016,04,30,06,23,4.10
2016,04,30,06,24,4.00
2016,04,30,06,25,4.00
2016,04,30,06,26,4.00
2016,04,30,06,27,4.00
2016,04,30,06,28,4.00
2016,04,30,06,29,4.00
2016,04,30,06,30,4.00
2016,04,30,06,31,4.00
2016,04,30,06,32,4.00
2016,04,30,06,33,4.00
2016,04,30,06,34,4.00
2016,04,30,06,35,4.10
2016,04,30,06,36,4.10
2016,04,30,06,37,4.10
2016,04,30,06,38,4.10
2016,04,30,06,39,4.20
2016,04,30,06,40,4.20
2016,04,30,06,41,4.20
2016,04,30,06,42,4.20
2016,04,30,06,43,4.20
2016,04,30,06,44,4.20
2016,04,30,06,45,4.20
2016,04,30,06,46,4.20
2016,04,30,06,47,4.20
2016,04,30,06,48,4.20
2016,04,30,06,49,4.20
2016,04,30,06,50,4.20
2016,04,30,06,51,4.20
2016,04,30,06,52,4.30
2016,04,30,06,53,4.30
2016,04,30,06,54,4.30
2016,04,30,06,55,4.30
2016,04,30,06,56,4.30
2016,04,30,06,57,4.30
2016,04,30,06,58,4.30
2016,04,30,06,59,4.30
2016,04,30,07,00,4.30
2016,04,30,07,01,4.20
2016,04,30,07,02,4.20
2016,04,30,07,03,4.20
2016,04,30,07,04,4.20
2016,04,30,07,05,4.20
2016,04,30,07,06,4.20
2016,04,30,07,07,4.20
2016,04,30,07,08,4.20
2016,04,30,07,09,4.20
2016,04,30,07,10,4.20
2016,04,30,07,11,4.20
2016,04,30,07,12,4.20
2016,04,30,07,13,4.20
2016,04,30,07,14,4.20
2016,04,30,07,15,4.20
2016,04,30,07,16,4.20
2016,04,30,07,17,4.20
2016,04,30,07,18,4.20
2016,04,30,07,19,4.30
2016,04,30,07,20,4.30
2016,04,30,07,21,4.30
2016,04,30,07,22,4.30
2016,04,30,07,23,4.30
2016,04,30,07,24,4.40
2016,04,30,07,25,4.40
2016,04,30,07,26,4.50
2016,04,30,07,27,4.50
2016,04,30,07,28,4.60
2016,04,30,07,29,4.70
2016,04,30,07,30,4.70
2016,04,30,07,31,4.80
2016,04,30,07,32,4.90
2016,04,30,07,33,5.10
2016,04,30,07,34,5.20
2016,04,30,07,35,5.30
2016,04,30,07,36,5.40
2016,04,30,07,37,5.50
2016,04,30,07,38,5.50
2016,04,30,07,39,5.60
2016,04,30,07,40,5.70
2016,04,30,07,41,5.70
2016,04,30,07,42,5.70
2016,04,30,07,43,5.70
2016,04,30,07,44,5.80
2016,04,30,07,45,5.80
2016,04,30,07,46,5.90
2016,04,30,07,47,5.90
2016,04,30,07,48,5.90
2016,04,30,07,49,6.00
2016,04,30,07,50,6.10
2016,04,30,07,51,6.10
2016,04,30,07,52,6.10
2016,04,30,07,53,6.20
2016,04,30,07,54,6.20
2016,04,30,07,55,6.30
2016,04,30,07,56,6.30
2016,04,30,07,57,6.40
2016,04,30,07,58,6.50
2016,04,30,07,59,6.50
2016,04,30,08,00,6.60
2016,04,30,08,01,6.70
2016,04,30,08,02,6.80
2016,04,30,08,03,6.90
2016,04,30,08,04,7.00
2016,04,30,08,05,7.10
2016,04,30,08,06,7.20
2016,04,30,08,07,7.20
2016,04,30,08,08,7.30
2016,04,30,08,09,7.40
2016,04,30,08,10,7.40
2016,04,30,08,11,7.50
2016,04,30,08,12,7.60
2016,04,30,08,13,7.70
2016,04,30,08,14,7.80
2016,04,30,08,15,7.90
2016,04,30,08,16,8.00
2016,04,30,08,17,8.00
2016,04,30,08,18,8.10
2016,04,30,08,19,8.20
2016,04,30,08,20,8.20
2016,04,30,08,21,8.30
2016,04,30,08,22,8.30
2016,04,30,08,23,8.40
2016,04,30,08,24,8.40
2016,04,30,08,25,8.50
2016,04,30,08,26,8.60
2016,04,30,08,27,8.60
2016,04,30,08,28,8.70
2016,04,30,08,29,8.80
2016,04,30,08,30,8.80
2016,04,30,08,31,8.90
2016,04,30,08,32,9.00
2016,04,30,08,33,9.00
2016,04,30,08,34,9.10
2016,04,30,08,35,9.20
2016,04,30,08,36,9.20
2016,04,30,08,37,9.30
2016,04,30,08,38,9.30
2016,04,30,08,39,9.40
2016,04,30,08,40,9.50
2016,04,30,08,41,9.60
2016,04,30,08,42,9.60
2016,04,30,08,43,9.70
2016,04,30,08,44,9.70
2016,04,30,08,45,9.70
2016,04,30,08,46,9.70
2016,04,30,08,47,9.70
2016,04,30,08,48,9.70
2016,04,30,08,49,9.70
2016,04,30,08,50,9.70
2016,04,30,08,51,9.70
2016,04,30,08,52,9.70
2016,04,30,08,53,9.70
2016,04,30,08,54,9.70
2016,04,30,08,55,9.70
2016,04,30,08,56,9.70
2016,04,30,08,57,9.70
2016,04,30,08,58,9.70
2016,04,30,08,59,9.70
2016,04,30,09,00,9.80
2016,04,30,09,01,9.80
2016,04,30,09,02,9.80
2016,04,30,09,03,9.90
2016,04,30,09,04,9.90
2016,04,30,09,05,9.90
2016,04,30,09,06,9.90
2016,04,30,09,07,9.80
2016,04,30,09,08,9.80
2016,04,30,09,09,9.80
2016,04,30,09,10,9.80
2016,04,30,09,11,9.70
2016,04,30,09,12,9.70
2016,04,30,09,13,9.70
2016,04,30,09,14,9.60
2016,04,30,09,15,9.60
2016,04,30,09,16,9.60
2016,04,30,09,17,9.70
2016,04,30,09,18,9.70
2016,04,30,09,19,9.70
2016,04,30,09,20,9.70
2016,04,30,09,21,9.70
2016,04,30,09,22,9.80
2016,04,30,09,23,9.80
2016,04,30,09,24,9.80
2016,04,30,09,25,9.80
2016,04,30,09,26,9.80
2016,04,30,09,27,9.80
2016,04,30,09,28,9.90
2016,04,30,09,29,9.90
2016,04,30,09,30,10.00
2016,04,30,09,31,10.00
2016,04,30,09,32,10.10
2016,04,30,09,33,10.20
2016,04,30,09,34,10.40
2016,04,30,09,35,10.50
2016,04,30,09,36,10.70
2016,04,30,09,37,10.80
2016,04,30,09,38,10.80
2016,04,30,09,39,10.90
2016,04,30,09,40,10.90
2016,04,30,09,41,10.90
2016,04,30,09,42,10.90
2016,04,30,09,43,10.90
2016,04,30,09,44,11.00
2016,04,30,09,45,11.10
2016,04,30,09,46,11.10
2016,04,30,09,47,11.10
2016,04,30,09,48,11.20
2016,04,30,09,49,11.20
2016,04,30,09,50,11.20
2016,04,30,09,51,11.20
2016,04,30,09,52,11.20
2016,04,30,09,53,11.20
2016,04,30,09,54,11.20
2016,04,30,09,55,11.20
2016,04,30,09,56,11.20
2016,04,30,09,57,11.20
2016,04,30,09,58,11.30
2016,04,30,09,59,11.30
2016,04,30,10,00,11.30
2016,04,30,10,01,11.30
2016,04,30,10,02,11.40
2016,04,30,10,03,11.40
2016,04,30,10,04,11.50
2016,04,30,10,05,11.50
2016,04,30,10,06,11.60
2016,04,30,10,07,11.70
2016,04,30,10,08,11.80
2016,04,30,10,09,12.00
2016,04,30,10,10,12.00
2016,04,30,10,11,12.10
2016,04,30,10,12,12.20
2016,04,30,10,13,12.30
2016,04,30,10,14,12.40
2016,04,30,10,15,12.50
2016,04,30,10,16,12.50
2016,04,30,10,17,12.50
2016,04,30,10,18,12.50
2016,04,30,10,19,12.50
2016,04,30,10,20,12.50
2016,04,30,10,21,12.60
2016,04,30,10,22,12.60
2016,04,30,10,23,12.60
2016,04,30,10,24,12.70
2016,04,30,10,25,12.70
2016,04,30,10,26,12.80
2016,04,30,10,27,12.80
2016,04,30,10,28,12.90
2016,04,30,10,29,12.90
2016,04,30,10,30,13.00
2016,04,30,10,31,13.10
2016,04,30,10,32,13.20
2016,04,30,10,33,13.20
2016,04,30,10,34,13.20
2016,04,30,10,35,13.20
2016,04,30,10,36,13.30
2016,04,30,10,37,13.30
2016,04,30,10,38,13.30
2016,04,30,10,39,13.40
2016,04,30,10,40,13.40
2016,04,30,10,41,13.40
2016,04,30,10,42,13.40
2016,04,30,10,43,13.40
2016,04,30,10,44,13.50
2016,04,30,10,45,13.60
2016,04,30,10,46,13.60
2016,04,30,10,47,13.70
2016,04,30,10,48,13.70
2016,04,30,10,49,13.80
2016,04,30,10,50,13.80
2016,04,30,10,51,13.90
2016,04,30,10,52,13.90
2016,04,30,10,53,13.90
2016,04,30,10,54,13.90
2016,04,30,10,55,13.80
2016,04,30,10,56,13.90
2016,04,30,10,57,13.90
2016,04,30,10,58,14.00
2016,04,30,10,59,14.10
2016,04,30,11,00,14.30
2016,04,30,11,01,14.40
2016,04,30,11,02,14.40
2016,04,30,11,03,14.40
2016,04,30,11,04,14.40
2016,04,30,11,05,14.50
2016,04,30,11,06,14.50
2016,04,30,11,07,14.60
2016,04,30,11,08,14.60
2016,04,30,11,09,14.60
2016,04,30,11,10,14.70
2016,04,30,11,11,14.70
2016,04,30,11,12,14.70
2016,04,30,11,13,14.70
2016,04,30,11,14,14.70
2016,04,30,11,15,14.80
2016,04,30,11,16,14.80
2016,04,30,11,17,14.80
2016,04,30,11,18,14.80
2016,04,30,11,19,14.80
2016,04,30,11,20,14.90
2016,04,30,11,21,14.90
2016,04,30,11,22,14.90
2016,04,30,11,23,14.90
2016,04,30,11,24,14.90
2016,04,30,11,25,14.80
2016,04,30,11,26,14.90
2016,04,30,11,27,14.90
2016,04,30,11,28,14.90
2016,04,30,11,29,14.90
2016,04,30,11,30,14.90
2016,04,30,11,31,14.90
2016,04,30,11,32,14.90
2016,04,30,11,33,15.00
2016,04,30,11,34,15.00
2016,04,30,11,35,15.00
2016,04,30,11,36,14.90
2016,04,30,11,37,14.90
2016,04,30,11,38,14.90
2016,04,30,11,39,14.90
2016,04,30,11,40,14.90
2016,04,30,11,41,15.00
2016,04,30,11,42,15.00
2016,04,30,11,43,15.10
2016,04,30,11,44,15.20
2016,04,30,11,45,15.20
2016,04,30,11,46,15.30
2016,04,30,11,47,15.40
2016,04,30,11,48,15.40
2016,04,30,11,49,15.40
2016,04,30,11,50,15.30
2016,04,30,11,51,15.30
2016,04,30,11,52,15.30
2016,04,30,11,53,15.40
2016,04,30,11,54,15.40
2016,04,30,11,55,15.40
2016,04,30,11,56,15.30
2016,04,30,11,57,15.30
2016,04,30,11,58,15.30
2016,04,30,11,59,15.40
2016,04,30,12,00,15.40
2016,04,30,12,01,15.50
2016,04,30,12,02,15.50
2016,04,30,12,03,15.60
2016,04,30,12,04,15.70
2016,04,30,12,05,15.80
2016,04,30,12,06,15.80
2016,04,30,12,07,15.90
2016,04,30,12,08,16.00
2016,04,30,12,09,16.10
2016,04,30,12,10,16.10
2016,04,30,12,11,16.20
2016,04,30,12,12,16.20
2016,04,30,12,13,16.20
2016,04,30,12,14,16.20
2016,04,30,12,15,16.10
2016,04,30,12,16,16.10
2016,04,30,12,17,16.00
2016,04,30,12,18,16.00
2016,04,30,12,19,16.00
2016,04,30,12,20,16.10
2016,04,30,12,21,16.20
2016,04,30,12,22,16.30
2016,04,30,12,23,16.30
2016,04,30,12,24,16.30
2016,04,30,12,25,16.20
2016,04,30,12,26,16.20
2016,04,30,12,27,16.20
2016,04,30,12,28,16.30
2016,04,30,12,29,16.30
2016,04,30,12,30,16.20
2016,04,30,12,31,16.30
2016,04,30,12,32,16.30
2016,04,30,12,33,16.30
2016,04,30,12,34,16.40
2016,04,30,12,35,16.40
2016,04,30,12,36,16.30
2016,04,30,12,37,16.30
2016,04,30,12,38,16.30
2016,04,30,12,39,16.30
2016,04,30,12,40,16.20
2016,04,30,12,41,16.20
2016,04,30,12,42,16.10
2016,04,30,12,43,16.00
2016,04,30,12,44,16.00
2016,04,30,12,45,16.00
2016,04,30,12,46,16.00
2016,04,30,12,47,16.00
2016,04,30,12,48,16.10
2016,04,30,12,49,16.00
2016,04,30,12,50,16.00
2016,04,30,12,51,15.90
2016,04,30,12,52,15.80
2016,04,30,12,53,15.70
2016,04,30,12,54,15.60
2016,04,30,12,55,15.60
2016,04,30,12,56,15.60
2016,04,30,12,57,15.70
2016,04,30,12,58,15.70
2016,04,30,12,59,15.80
2016,04,30,13,00,15.80
2016,04,30,13,01,15.90
2016,04,30,13,02,16.00
2016,04,30,13,03,16.00
2016,04,30,13,04,16.10
2016,04,30,13,05,16.10
2016,04,30,13,06,16.20
2016,04,30,13,07,16.20
2016,04,30,13,08,16.30
2016,04,30,13,09,16.30
2016,04,30,13,10,16.30
2016,04,30,13,11,16.20
2016,04,30,13,12,16.20
2016,04,30,13,13,16.20
2016,04,30,13,14,16.20
2016,04,30,13,15,16.30
2016,04,30,13,16,16.30
2016,04,30,13,17,16.20
2016,04,30,13,18,16.30
2016,04,30,13,19,16.30
2016,04,30,13,20,16.30
2016,04,30,13,21,16.30
2016,04,30,13,22,16.30
2016,04,30,13,23,16.30
2016,04,30,13,24,16.30
2016,04,30,13,25,16.30
2016,04,30,13,26,16.30
2016,04,30,13,27,16.30
2016,04,30,13,28,16.20
2016,04,30,13,29,16.10
2016,04,30,13,30,16.20
2016,04,30,13,31,16.20
2016,04,30,13,32,16.30
2016,04,30,13,33,16.30
2016,04,30,13,34,16.40
2016,04,30,13,35,16.30
2016,04,30,13,36,16.30
2016,04,30,13,37,16.30
2016,04,30,13,38,16.30
2016,04,30,13,39,16.30
2016,04,30,13,40,16.20
2016,04,30,13,41,16.10
2016,04,30,13,42,16.00
2016,04,30,13,43,15.90
2016,04,30,13,44,15.90
2016,04,30,13,45,15.90
2016,04,30,13,46,15.90
2016,04,30,13,47,16.00
2016,04,30,13,48,16.00
2016,04,30,13,49,16.00
2016,04,30,13,50,16.10
2016,04,30,13,51,16.10
2016,04,30,13,52,16.10
2016,04,30,13,53,16.10
2016,04,30,13,54,16.10
2016,04,30,13,55,16.20
2016,04,30,13,56,16.20
2016,04,30,13,57,16.10
2016,04,30,13,58,16.10
2016,04,30,13,59,16.10
2016,04,30,14,00,16.10
2016,04,30,14,01,16.10
2016,04,30,14,02,16.20
2016,04,30,14,03,16.30
2016,04,30,14,04,16.40
2016,04,30,14,05,16.40
2016,04,30,14,06,16.40
2016,04,30,14,07,16.40
2016,04,30,14,08,16.40
2016,04,30,14,09,16.40
2016,04,30,14,10,16.50
2016,04,30,14,11,16.60
2016,04,30,14,12,16.70
2016,04,30,14,13,16.80
2016,04,30,14,14,16.80
2016,04,30,14,15,16.80
2016,04,30,14,16,16.90
2016,04,30,14,17,16.90
2016,04,30,14,18,16.90
2016,04,30,14,19,16.90
2016,04,30,14,20,16.80
2016,04,30,14,21,16.80
2016,04,30,14,22,16.70
2016,04,30,14,23,16.70
2016,04,30,14,24,16.60
2016,04,30,14,25,16.50
2016,04,30,14,26,16.40
2016,04,30,14,27,16.40
2016,04,30,14,28,16.40
2016,04,30,14,29,16.40
2016,04,30,14,30,16.50
2016,04,30,14,31,16.60
2016,04,30,14,32,16.60
2016,04,30,14,33,16.60
2016,04,30,14,34,16.70
2016,04,30,14,35,16.70
2016,04,30,14,36,16.80
2016,04,30,14,37,16.80
2016,04,30,14,38,16.80
2016,04,30,14,39,16.90
2016,04,30,14,40,16.90
2016,04,30,14,41,17.00
2016,04,30,14,42,17.00
2016,04,30,14,43,17.00
2016,04,30,14,44,16.90
2016,04,30,14,45,16.90
2016,04,30,14,46,16.90
2016,04,30,14,47,17.00
2016,04,30,14,48,17.00
2016,04,30,14,49,17.10
2016,04,30,14,50,17.10
2016,04,30,14,51,17.00
2016,04,30,14,52,16.90
2016,04,30,14,53,16.90
2016,04,30,14,54,16.90
2016,04,30,14,55,16.90
2016,04,30,14,56,16.90
2016,04,30,14,57,16.90
2016,04,30,14,58,16.90
2016,04,30,14,59,17.00
2016,04,30,15,00,17.00
2016,04,30,15,01,17.10
2016,04,30,15,02,17.20
2016,04,30,15,03,17.20
2016,04,30,15,04,17.30
2016,04,30,15,05,17.30
2016,04,30,15,06,17.40
2016,04,30,15,07,17.40
2016,04,30,15,08,17.50
2016,04,30,15,09,17.60
2016,04,30,15,10,17.70
2016,04,30,15,11,17.70
2016,04,30,15,12,17.70
2016,04,30,15,13,17.80
2016,04,30,15,14,17.80
2016,04,30,15,15,17.80
2016,04,30,15,16,17.80
2016,04,30,15,17,17.80
2016,04,30,15,18,17.80
2016,04,30,15,19,17.80
2016,04,30,15,20,17.80
2016,04,30,15,21,17.80
2016,04,30,15,22,17.80
2016,04,30,15,23,17.80
2016,04,30,15,24,17.80
2016,04,30,15,25,17.80
2016,04,30,15,26,17.80
2016,04,30,15,27,17.80
2016,04,30,15,28,17.80
2016,04,30,15,29,17.80
2016,04,30,15,30,17.80
2016,04,30,15,31,17.80
2016,04,30,15,32,17.80
2016,04,30,15,33,17.80
2016,04,30,15,34,17.60
2016,04,30,15,35,17.50
2016,04,30,15,36,17.40
2016,04,30,15,37,17.40
2016,04,30,15,38,17.50
2016,04,30,15,39,17.50
2016,04,30,15,40,17.60
2016,04,30,15,41,17.60
2016,04,30,15,42,17.50
2016,04,30,15,43,17.50
2016,04,30,15,44,17.50
2016,04,30,15,45,17.50
2016,04,30,15,46,17.50
2016,04,30,15,47,17.40
2016,04,30,15,48,17.40
2016,04,30,15,49,17.30
2016,04,30,15,50,17.30
2016,04,30,15,51,17.20
2016,04,30,15,52,17.10
2016,04,30,15,53,17.00
2016,04,30,15,54,16.90
2016,04,30,15,55,16.80
2016,04,30,15,56,16.80
2016,04,30,15,57,16.80
2016,04,30,15,58,16.80
2016,04,30,15,59,16.90
2016,04,30,16,00,16.90
2016,04,30,16,01,16.90
2016,04,30,16,02,16.80
2016,04,30,16,03,16.70
2016,04,30,16,04,16.60
2016,04,30,16,05,16.50
2016,04,30,16,06,16.50
2016,04,30,16,07,16.40
2016,04,30,16,08,16.30
2016,04,30,16,09,16.30
2016,04,30,16,10,16.30
2016,04,30,16,11,16.20
2016,04,30,16,12,16.10
2016,04,30,16,13,16.10
2016,04,30,16,14,16.00
2016,04,30,16,15,16.00
2016,04,30,16,16,15.90
2016,04,30,16,17,15.90
2016,04,30,16,18,16.00
2016,04,30,16,19,16.00
2016,04,30,16,20,16.10
2016,04,30,16,21,16.20
2016,04,30,16,22,16.30
2016,04,30,16,23,16.30
2016,04,30,16,24,16.30
2016,04,30,16,25,16.30
2016,04,30,16,26,16.40
2016,04,30,16,27,16.40
2016,04,30,16,28,16.30
2016,04,30,16,29,16.30
2016,04,30,16,30,16.30
2016,04,30,16,31,16.30
2016,04,30,16,32,16.40
2016,04,30,16,33,16.40
2016,04,30,16,34,16.40
2016,04,30,16,35,16.40
2016,04,30,16,36,16.40
2016,04,30,16,37,16.40
2016,04,30,16,38,16.40
2016,04,30,16,39,16.40
2016,04,30,16,40,16.40
2016,04,30,16,41,16.40
2016,04,30,16,42,16.40
2016,04,30,16,43,16.50
2016,04,30,16,44,16.50
2016,04,30,16,45,16.60
2016,04,30,16,46,16.60
2016,04,30,16,47,16.60
2016,04,30,16,48,16.60
2016,04,30,16,49,16.60
2016,04,30,16,50,16.60
2016,04,30,16,51,16.60
2016,04,30,16,52,16.70
2016,04,30,16,53,16.70
2016,04,30,16,54,16.60
2016,04,30,16,55,16.60
2016,04,30,16,56,16.60
2016,04,30,16,57,16.50
2016,04,30,16,58,16.50
2016,04,30,16,59,16.40
2016,04,30,17,00,16.40
2016,04,30,17,01,16.30
2016,04,30,17,02,16.30
2016,04,30,17,03,16.40
2016,04,30,17,04,16.50
2016,04,30,17,05,16.50
2016,04,30,17,06,16.40
2016,04,30,17,07,16.30
2016,04,30,17,08,16.30
2016,04,30,17,09,16.20
2016,04,30,17,10,16.20
2016,04,30,17,11,16.10
2016,04,30,17,12,16.00
2016,04,30,17,13,16.00
2016,04,30,17,14,15.90
2016,04,30,17,15,15.80
2016,04,30,17,16,15.80
2016,04,30,17,17,15.80
2016,04,30,17,18,15.70
2016,04,30,17,19,15.70
2016,04,30,17,20,15.60
2016,04,30,17,21,15.60
2016,04,30,17,22,15.50
2016,04,30,17,23,15.50
2016,04,30,17,24,15.60
2016,04,30,17,25,15.60
2016,04,30,17,26,15.60
2016,04,30,17,27,15.70
2016,04,30,17,28,15.70
2016,04,30,17,29,15.70
2016,04,30,17,30,15.80
2016,04,30,17,31,15.80
2016,04,30,17,32,15.80
2016,04,30,17,33,15.80
2016,04,30,17,34,15.80
2016,04,30,17,35,15.80
2016,04,30,17,36,15.80
2016,04,30,17,37,15.80
2016,04,30,17,38,15.80
2016,04,30,17,39,15.90
2016,04,30,17,40,15.90
2016,04,30,17,41,15.90
2016,04,30,17,42,15.90
2016,04,30,17,43,15.90
2016,04,30,17,44,15.90